| time (UTC) | temp C | wind direction | speed KPH | gust KPH | rain 1hr cm | rain 24hr cm | rain mn cm | humidity % | barometer mb |
| 20260505011607 | 25 | 164 | 0.0 | 0.0 | 0.00 | 0.00 | 0.00 | 52 | 1000.7 |
| 20260505010100 | 25 | 178 | 0.0 | 0.0 | 0.00 | 0.00 | 0.00 | 51 | 1000.7 |
| 20260505004559 | 25 | 140 | 0.0 | 0.0 | 0.00 | 0.00 | 0.00 | 50 | 1000.6 |
| 20260505003058 | 26 | 187 | 0.0 | 0.0 | 0.00 | 0.00 | 0.00 | 49 | 1000.4 |
| 20260505001558 | 26 | 168 | 0.0 | 0.0 | 0.00 | 0.00 | 0.00 | 49 | 1000.4 |
| 20260505000115 | 27 | 166 | 0.0 | 0.0 | 0.00 | 0.00 | 0.00 | 49 | 1000.4 |
| 20260504234558 | 27 | 174 | 0.0 | 0.0 | 0.00 | 0.00 | 0.00 | 47 | 1000.5 |
| 20260504233108 | 27 | 178 | 0.0 | 0.0 | 0.00 | 0.00 | 0.00 | 47 | 1000.6 |
| 20260504231554 | 27 | 163 | 0.0 | 0.0 | 0.00 | 0.00 | 0.00 | 46 | 1000.7 |
| 20260504230053 | 27 | 178 | 0.0 | 0.0 | 0.00 | 0.00 | 0.00 | 46 | 1000.7 |
| 20260504224557 | 27 | 153 | 0.0 | 0.0 | 0.00 | 0.00 | 0.00 | 45 | 1000.8 |
| 20260504223112 | 27 | 155 | 0.0 | 0.0 | 0.00 | 0.00 | 0.00 | 46 | 1000.9 |
| 20260504221550 | 27 | 167 | 0.0 | 0.0 | 0.00 | 0.00 | 0.00 | 44 | 1000.9 |
| 20260504220049 | 27 | 163 | 0.0 | 0.0 | 0.00 | 0.00 | 0.00 | 45 | 1001.0 |
| 20260504214550 | 27 | 161 | 0.0 | 0.0 | 0.00 | 0.00 | 0.00 | 47 | 1000.9 |
| 20260504213059 | 27 | 161 | 0.0 | 0.0 | 0.00 | 0.00 | 0.00 | 47 | 1001.0 |
| 20260504211547 | 27 | 173 | 0.0 | 0.0 | 0.00 | 0.00 | 0.00 | 47 | 1000.9 |
| 20260504210045 | 27 | 245 | 0.0 | 0.0 | 0.00 | 0.00 | 0.00 | 47 | 1001.1 |
| 20260504204548 | 27 | 163 | 1.6 | 22.5 | 0.00 | 0.00 | 0.00 | 48 | 1001.1 |
| 20260504203053 | 27 | 150 | 8.0 | 22.5 | 0.00 | 0.00 | 0.00 | 51 | 1001.4 |
| 20260504201538 | 26 | 180 | 8.0 | 14.5 | 0.00 | 0.00 | 0.00 | 53 | 1001.6 |
| 20260504200035 | 26 | 171 | 8.0 | 22.5 | 0.00 | 0.00 | 0.00 | 55 | 1001.9 |
| 20260504194530 | 25 | 162 | 6.4 | 12.9 | 0.00 | 0.00 | 0.00 | 59 | 1002.3 |
| 20260504193027 | 23 | 140 | 6.4 | 12.9 | 0.00 | 0.00 | 0.00 | 63 | 1002.3 |
| 20260504191524 | 22 | 159 | 6.4 | 14.5 | 0.00 | 0.00 | 0.00 | 65 | 1002.7 |
| 20260504190017 | 21 | 154 | 4.8 | 12.9 | 0.00 | 0.00 | 0.00 | 69 | 1002.8 |
| 20260504184515 | 20 | 146 | 4.8 | 11.3 | 0.00 | 0.00 | 0.00 | 71 | 1002.2 |
| 20260504183012 | 20 | 146 | 4.8 | 14.5 | 0.00 | 0.00 | 0.00 | 69 | 1002.6 |
| 20260504181514 | 20 | 139 | 4.8 | 11.3 | 0.00 | 0.00 | 0.00 | 65 | 1003.7 |
| 20260504180010 | 20 | 156 | 6.4 | 16.1 | 0.00 | 0.00 | 0.00 | 64 | 1003.4 |
| 20260504174508 | 20 | 157 | 4.8 | 19.3 | 0.00 | 0.00 | 0.00 | 64 | 1003.5 |
| 20260504173007 | 20 | 160 | 8.0 | 14.5 | 0.00 | 0.00 | 0.00 | 63 | 1003.7 |
| 20260504171504 | 20 | 159 | 4.8 | 12.9 | 0.00 | 0.00 | 0.00 | 67 | 1004.2 |
| 20260504160106 | 17 | 163 | 8.0 | 17.7 | 0.00 | 0.00 | 0.00 | 71 | 1004.6 |
| 20260504081527 | 15 | 167 | 0.0 | 0.0 | 0.00 | 0.00 | 0.00 | 76 | 1006.9 |
| 20260504050000 | 18 | 186 | 4.8 | 11.3 | 0.00 | 0.00 | 0.00 | 60 | 1007.0 |
| 20260504044606 | 18 | 166 | 0.0 | 4.8 | 0.00 | 0.00 | 0.00 | 60 | 1007.0 |
| 20260504043100 | 19 | 166 | 0.0 | 0.0 | 0.00 | 0.00 | 0.00 | 59 | 1007.1 |
| 20260504041558 | 20 | 166 | 0.0 | 6.4 | 0.00 | 0.00 | 0.00 | 56 | 1007.7 |
| 20260504040107 | 20 | 167 | 1.6 | 9.7 | 0.00 | 0.00 | 0.00 | 56 | 1007.8 |
| 20260504034627 | 20 | 161 | 6.4 | 12.9 | 0.00 | 0.00 | 0.00 | 55 | 1007.8 |
| 20260504033057 | 20 | 163 | 0.0 | 8.0 | 0.00 | 0.00 | 0.00 | 56 | 1007.2 |
| 20260504031556 | 20 | 163 | 3.2 | 9.7 | 0.00 | 0.00 | 0.00 | 56 | 1008.0 |
| 20260504030120 | 21 | 164 | 3.2 | 9.7 | 0.00 | 0.00 | 0.00 | 55 | 1008.2 |
| 20260504024559 | 21 | 172 | 1.6 | 6.4 | 0.00 | 0.00 | 0.00 | 53 | 1008.0 |
| 20260504023055 | 21 | 244 | 0.0 | 0.0 | 0.00 | 0.00 | 0.00 | 53 | 1008.0 |
| 20260504021557 | 21 | 244 | 0.0 | 0.0 | 0.00 | 0.00 | 0.00 | 53 | 1008.0 |
| 20260504020105 | 22 | 244 | 0.0 | 0.0 | 0.00 | 0.00 | 0.00 | 51 | 1007.9 |
| 20260504014558 | 22 | 244 | 0.0 | 0.0 | 0.00 | 0.00 | 0.00 | 50 | 1008.0 |
| 20260504013055 | 22 | 244 | 0.0 | 3.2 | 0.00 | 0.00 | 0.00 | 51 | 1007.9 |